User: anonymous   Login
Location: Caltech
(34.1382°N, 118.1253°W)
Time: 17:39:38
(UTC-07:00)
Language:

ITAMSAT 1 - Orbit

View from above orbital plane
View from above orbital plane
View from above satellite
View from above satellite

Ground track
Ground track

The orbit data is extracted from the following two-line orbital elements,

1 22826U 93061D   17116.80763434 +.00000023 +00000-0 +26331-4 0  9994
2 22826 098.8016 081.8601 0009978 109.4555 250.7705 14.30322090230230
Epoch (UTC): 26 April 2017 19:22:59
Eccentricity: 0.0009978
inclination: 98.8016°
perigee height: 783 km
apogee height: 798 km
right ascension of ascending node: 81.8601°
argument of perigee: 109.4555°
revolutions per day: 14.30322090
mean anomaly at epoch: 250.7705°
orbit number at epoch: 23023

The dashed part of the orbit path shows where the satellite is in the earth's shadow,  

DLR